Time,TemperatureF,DewpointF,PressureIn,WindDirection,WindDirectionDegrees,WindSpeedMPH,WindSpeedGustMPH,Humidity,HourlyPrecipIn,Conditions,Clouds,dailyrainin,SoftwareType,DateUTC
2013-01-30 00:00:00,61.2,57.0,29.40,SSW,208,3.0,14.0,86,0.00,,---,0.30,VWS V14.00,2013-01-30 05:00:00,
2013-01-30 00:03:00,61.3,57.1,29.39,South,186,0.0,10.0,86,0.00,,---,0.00,VWS V14.00,2013-01-30 05:03:00,
2013-01-30 00:09:00,61.2,57.0,29.38,SE,139,9.0,10.0,86,0.00,,---,0.00,VWS V14.00,2013-01-30 05:09:00,
2013-01-30 00:14:00,61.3,57.1,29.38,South,171,12.0,14.0,86,0.00,,---,0.00,VWS V14.00,2013-01-30 05:14:00,
2013-01-30 00:19:00,61.4,57.2,29.37,South,181,8.0,14.0,86,0.00,,---,0.00,VWS V14.00,2013-01-30 05:19:00,
2013-01-30 00:24:00,61.6,57.4,29.37,SE,126,13.0,14.0,86,0.00,,---,0.00,VWS V14.00,2013-01-30 05:24:00,
2013-01-30 00:29:00,61.7,57.5,29.36,South,188,8.0,14.0,86,0.00,,---,0.00,VWS V14.00,2013-01-30 05:29:00,
2013-01-30 00:34:00,62.0,57.5,29.36,South,178,1.0,13.0,85,0.00,,---,0.00,VWS V14.00,2013-01-30 05:34:00,
2013-01-30 00:39:00,62.1,57.5,29.36,South,191,6.0,13.0,85,0.00,,---,0.00,VWS V14.00,2013-01-30 05:39:00,
2013-01-30 00:44:00,62.2,57.6,29.35,SSE,153,5.0,13.0,85,0.00,,---,0.00,VWS V14.00,2013-01-30 05:44:00,
2013-01-30 00:49:00,62.4,57.8,29.34,South,171,2.0,17.0,85,0.00,,---,0.00,VWS V14.00,2013-01-30 05:49:00,
2013-01-30 00:54:00,62.5,57.9,29.34,SSE,157,9.0,17.0,85,0.00,,---,0.00,VWS V14.00,2013-01-30 05:54:00,
2013-01-30 01:00:00,62.5,57.6,29.33,SSE,159,6.0,17.0,84,0.00,,---,0.00,VWS V14.00,2013-01-30 06:00:00,
2013-01-30 01:05:00,62.4,57.5,29.33,SSE,166,5.0,12.0,84,0.00,,---,0.00,VWS V14.00,2013-01-30 06:05:00,
2013-01-30 01:10:00,62.3,57.7,29.33,SSE,150,2.0,13.0,85,0.00,,---,0.00,VWS V14.00,2013-01-30 06:10:00,
2013-01-30 01:15:00,62.3,57.7,29.32,South,180,10.0,13.0,85,0.00,,---,0.00,VWS V14.00,2013-01-30 06:15:00,
2013-01-30 01:20:00,62.5,57.6,29.32,South,184,5.0,15.0,84,0.00,,---,0.00,VWS V14.00,2013-01-30 06:20:00,
2013-01-30 01:25:00,62.6,57.7,29.32,South,182,3.0,15.0,84,0.00,,---,0.00,VWS V14.00,2013-01-30 06:25:00,
2013-01-30 01:30:00,62.6,57.7,29.32,South,171,2.0,2.0,84,0.00,,---,0.00,VWS V14.00,2013-01-30 06:30:00,
2013-01-30 01:35:00,62.6,57.7,29.31,South,186,2.0,11.0,84,0.00,,---,0.00,VWS V14.00,2013-01-30 06:35:00,
2013-01-30 01:40:00,62.7,57.8,29.30,South,169,10.0,14.0,84,0.00,,---,0.00,VWS V14.00,2013-01-30 06:40:00,
2013-01-30 01:45:00,62.9,58.0,29.29,SSE,156,2.0,16.0,84,0.00,,---,0.00,VWS V14.00,2013-01-30 06:45:00,
2013-01-30 01:50:00,63.1,58.2,29.29,SSE,167,2.0,16.0,84,0.00,,---,0.00,VWS V14.00,2013-01-30 06:50:00,
2013-01-30 01:55:00,63.2,58.3,29.27,West,273,5.0,16.0,84,0.00,,---,0.00,VWS V14.00,2013-01-30 06:55:00,
2013-01-30 02:01:00,63.4,58.5,29.28,WSW,253,7.0,11.0,84,0.01,,---,0.01,VWS V14.00,2013-01-30 07:01:00,
2013-01-30 02:06:00,63.2,58.3,29.29,SSE,167,6.0,11.0,84,0.01,,---,0.01,VWS V14.00,2013-01-30 07:06:00,
2013-01-30 02:11:00,63.1,58.2,29.29,South,173,11.0,11.0,84,0.01,,---,0.01,VWS V14.00,2013-01-30 07:11:00,
2013-01-30 02:16:00,63.2,58.3,29.28,SSW,194,5.0,13.0,84,0.01,,---,0.01,VWS V14.00,2013-01-30 07:16:00,
2013-01-30 02:21:00,63.3,58.4,29.28,SSW,210,3.0,14.0,84,0.01,,---,0.01,VWS V14.00,2013-01-30 07:21:00,
2013-01-30 02:26:00,63.4,58.5,29.30,SSW,194,1.0,14.0,84,0.01,,---,0.01,VWS V14.00,2013-01-30 07:26:00,
2013-01-30 02:31:00,60.8,54.9,29.33,WNW,302,8.0,18.0,81,0.10,,---,0.10,VWS V14.00,2013-01-30 07:31:00,
2013-01-30 02:36:00,56.6,52.8,29.33,WNW,297,6.0,18.0,87,0.13,,---,0.13,VWS V14.00,2013-01-30 07:36:00,
2013-01-30 02:41:00,55.0,52.1,29.35,WNW,293,7.0,18.0,90,0.14,,---,0.14,VWS V14.00,2013-01-30 07:41:00,
2013-01-30 02:46:00,54.3,51.7,29.35,NW,316,6.0,18.0,91,0.14,,---,0.14,VWS V14.00,2013-01-30 07:46:00,
2013-01-30 02:52:00,54.0,51.4,29.34,NW,321,4.0,18.0,91,0.14,,---,0.14,VWS V14.00,2013-01-30 07:52:00,
2013-01-30 02:57:00,53.7,51.4,29.35,WNW,300,7.0,18.0,92,0.14,,---,0.14,VWS V14.00,2013-01-30 07:57:00,
2013-01-30 03:02:00,53.5,51.2,29.35,NW,315,8.0,8.0,92,0.14,,---,0.15,VWS V14.00,2013-01-30 08:02:00,
2013-01-30 03:07:00,53.4,51.1,29.35,NW,318,4.0,8.0,92,0.14,,---,0.15,VWS V14.00,2013-01-30 08:07:00,
2013-01-30 03:12:00,53.3,51.0,29.34,NW,325,4.0,13.0,92,0.14,,---,0.15,VWS V14.00,2013-01-30 08:12:00,
2013-01-30 03:17:00,53.2,50.9,29.35,NW,315,6.0,13.0,92,0.14,,---,0.15,VWS V14.00,2013-01-30 08:17:00,
2013-01-30 03:22:00,53.1,50.8,29.34,WNW,302,2.0,13.0,92,0.14,,---,0.15,VWS V14.00,2013-01-30 08:22:00,
2013-01-30 03:27:00,53.0,50.7,29.34,NNW,333,4.0,13.0,92,0.14,,---,0.15,VWS V14.00,2013-01-30 08:27:00,
2013-01-30 03:32:00,52.9,50.6,29.33,NNW,336,4.0,6.0,92,0.11,,---,0.15,VWS V14.00,2013-01-30 08:32:00,
2013-01-30 03:37:00,52.9,50.6,29.33,NNW,333,4.0,7.0,92,0.11,,---,0.15,VWS V14.00,2013-01-30 08:37:00,
2013-01-30 03:42:00,52.8,50.5,29.32,NW,325,1.0,7.0,92,0.11,,---,0.15,VWS V14.00,2013-01-30 08:42:00,
2013-01-30 03:47:00,52.8,50.8,29.33,NW,326,0.0,7.0,93,0.11,,---,0.15,VWS V14.00,2013-01-30 08:47:00,
2013-01-30 03:52:00,52.7,50.7,29.33,NW,326,1.0,7.0,93,0.11,,---,0.15,VWS V14.00,2013-01-30 08:52:00,
2013-01-30 03:57:00,52.6,50.6,29.34,NW,326,0.0,7.0,93,0.11,,---,0.15,VWS V14.00,2013-01-30 08:57:00,
2013-01-30 04:03:00,52.6,50.6,29.35,NW,326,0.0,1.0,93,0.00,,---,0.15,VWS V14.00,2013-01-30 09:03:00,
2013-01-30 04:08:00,52.5,50.5,29.34,NW,326,0.0,4.0,93,0.00,,---,0.15,VWS V14.00,2013-01-30 09:08:00,
2013-01-30 04:13:00,52.4,50.4,29.35,WSW,243,0.0,7.0,93,0.00,,---,0.15,VWS V14.00,2013-01-30 09:13:00,
2013-01-30 04:18:00,52.4,50.4,29.36,WSW,243,1.0,7.0,93,0.01,,---,0.16,VWS V14.00,2013-01-30 09:18:00,
2013-01-30 04:23:00,52.3,50.3,29.36,WSW,243,1.0,7.0,93,0.01,,---,0.16,VWS V14.00,2013-01-30 09:23:00,
2013-01-30 04:28:00,52.3,50.3,29.36,WSW,243,2.0,7.0,93,0.01,,---,0.16,VWS V14.00,2013-01-30 09:28:00,
2013-01-30 04:33:00,52.2,50.2,29.35,West,264,0.0,2.0,93,0.02,,---,0.17,VWS V14.00,2013-01-30 09:33:00,
2013-01-30 04:38:00,52.2,50.2,29.36,West,264,1.0,3.0,93,0.02,,---,0.17,VWS V14.00,2013-01-30 09:38:00,
2013-01-30 04:43:00,52.1,50.1,29.36,West,264,3.0,3.0,93,0.02,,---,0.17,VWS V14.00,2013-01-30 09:43:00,
2013-01-30 04:48:00,52.1,50.1,29.36,West,264,0.0,3.0,93,0.03,,---,0.18,VWS V14.00,2013-01-30 09:48:00,
2013-01-30 04:53:00,51.9,49.9,29.37,West,264,1.0,3.0,93,0.03,,---,0.18,VWS V14.00,2013-01-30 09:53:00,
2013-01-30 04:58:00,51.9,49.9,29.36,West,264,1.0,3.0,93,0.04,,---,0.19,VWS V14.00,2013-01-30 09:58:00,
2013-01-30 05:03:00,51.8,49.8,29.35,West,264,0.0,1.0,93,0.05,,---,0.20,VWS V14.00,2013-01-30 10:03:00,
2013-01-30 05:08:00,51.8,50.1,29.36,West,264,0.0,1.0,94,0.06,,---,0.21,VWS V14.00,2013-01-30 10:08:00,
2013-01-30 05:14:00,51.7,50.0,29.36,West,264,0.0,1.0,94,0.07,,---,0.22,VWS V14.00,2013-01-30 10:14:00,
2013-01-30 05:19:00,51.7,50.0,29.37,West,264,0.0,1.0,94,0.07,,---,0.22,VWS V14.00,2013-01-30 10:19:00,
2013-01-30 05:24:00,51.7,50.0,29.36,West,264,0.0,1.0,94,0.07,,---,0.22,VWS V14.00,2013-01-30 10:24:00,
2013-01-30 05:29:00,51.7,50.0,29.36,West,264,0.0,1.0,94,0.08,,---,0.23,VWS V14.00,2013-01-30 10:29:00,
2013-01-30 05:34:00,51.6,49.9,29.36,West,264,0.0,0.0,94,0.08,,---,0.24,VWS V14.00,2013-01-30 10:34:00,
2013-01-30 05:39:00,51.5,49.8,29.37,West,264,3.0,3.0,94,0.08,,---,0.24,VWS V14.00,2013-01-30 10:39:00,
2013-01-30 05:44:00,51.4,49.7,29.37,West,264,0.0,3.0,94,0.09,,---,0.25,VWS V14.00,2013-01-30 10:44:00,
2013-01-30 05:49:00,51.3,49.6,29.36,West,264,0.0,3.0,94,0.11,,---,0.27,VWS V14.00,2013-01-30 10:49:00,
2013-01-30 05:54:00,51.3,49.6,29.36,West,263,0.0,3.0,94,0.12,,---,0.28,VWS V14.00,2013-01-30 10:54:00,
2013-01-30 05:59:00,51.2,49.5,29.34,West,263,0.0,3.0,94,0.14,,---,0.30,VWS V14.00,2013-01-30 10:59:00,
2013-01-30 06:04:00,51.1,49.4,29.34,WSW,255,3.0,3.0,94,0.10,,---,0.30,VWS V14.00,2013-01-30 11:04:00,
2013-01-30 06:09:00,51.0,49.3,29.32,SW,223,1.0,4.0,94,0.11,,---,0.31,VWS V14.00,2013-01-30 11:09:00,
2013-01-30 06:15:00,51.0,49.3,29.31,SSE,148,5.0,5.0,94,0.11,,---,0.31,VWS V14.00,2013-01-30 11:15:00,
2013-01-30 06:20:00,50.9,49.2,29.30,SE,135,2.0,5.0,94,0.11,,---,0.31,VWS V14.00,2013-01-30 11:20:00,
2013-01-30 06:25:00,50.9,49.2,29.31,SE,128,0.0,6.0,94,0.11,,---,0.31,VWS V14.00,2013-01-30 11:25:00,
2013-01-30 06:30:00,50.9,49.2,29.31,SE,128,0.0,6.0,94,0.11,,---,0.31,VWS V14.00,2013-01-30 11:30:00,
2013-01-30 06:35:00,50.9,49.2,29.32,SE,129,0.0,2.0,94,0.08,,---,0.31,VWS V14.00,2013-01-30 11:35:00,
2013-01-30 06:40:00,50.8,49.1,29.33,SE,128,0.0,2.0,94,0.08,,---,0.31,VWS V14.00,2013-01-30 11:40:00,
2013-01-30 06:45:00,50.8,49.1,29.33,SE,128,0.0,2.0,94,0.08,,---,0.31,VWS V14.00,2013-01-30 11:45:00,
2013-01-30 06:50:00,50.7,49.0,29.33,SE,128,0.0,2.0,94,0.08,,---,0.31,VWS V14.00,2013-01-30 11:50:00,
2013-01-30 06:55:00,50.6,48.9,29.33,SE,129,0.0,2.0,94,0.08,,---,0.31,VWS V14.00,2013-01-30 11:55:00,
2013-01-30 07:00:00,50.6,48.9,29.32,SE,129,1.0,1.0,94,0.01,,---,0.31,VWS V14.00,2013-01-30 12:00:00,
2013-01-30 07:05:00,50.6,48.9,29.29,SE,130,2.0,5.0,94,0.01,,---,0.31,VWS V14.00,2013-01-30 12:05:00,
2013-01-30 07:10:00,50.5,48.8,29.27,ESE,104,1.0,7.0,94,0.01,,---,0.31,VWS V14.00,2013-01-30 12:10:00,
2013-01-30 07:15:00,50.4,48.7,29.26,SSE,160,1.0,7.0,94,0.01,,---,0.31,VWS V14.00,2013-01-30 12:15:00,
2013-01-30 07:20:00,50.3,48.6,29.28,SE,139,0.0,7.0,94,0.01,,---,0.31,VWS V14.00,2013-01-30 12:20:00,
2013-01-30 07:26:00,50.3,48.6,29.28,SE,139,0.0,7.0,94,0.01,,---,0.31,VWS V14.00,2013-01-30 12:26:00,
2013-01-30 07:31:00,50.3,48.6,29.28,SE,138,4.0,4.0,94,0.00,,---,0.31,VWS V14.00,2013-01-30 12:31:00,
2013-01-30 07:36:00,50.3,48.6,29.30,SE,142,0.0,4.0,94,0.00,,---,0.31,VWS V14.00,2013-01-30 12:36:00,
2013-01-30 07:41:00,50.2,48.5,29.30,SE,142,0.0,4.0,94,0.00,,---,0.31,VWS V14.00,2013-01-30 12:41:00,
2013-01-30 07:46:00,50.3,48.9,29.30,SSE,165,0.0,5.0,95,0.00,,---,0.31,VWS V14.00,2013-01-30 12:46:00,
2013-01-30 07:51:00,50.3,48.9,29.32,SSE,164,0.0,5.0,95,0.00,,---,0.31,VWS V14.00,2013-01-30 12:51:00,
2013-01-30 07:56:00,50.3,48.9,29.32,SW,217,0.0,5.0,95,0.00,,---,0.31,VWS V14.00,2013-01-30 12:56:00,
2013-01-30 08:01:00,50.4,49.0,29.30,South,171,0.0,2.0,95,0.00,,---,0.31,VWS V14.00,2013-01-30 13:01:00,
2013-01-30 08:06:00,50.3,48.9,29.28,SE,137,1.0,6.0,95,0.00,,---,0.31,VWS V14.00,2013-01-30 13:06:00,
2013-01-30 08:11:00,50.3,48.9,29.28,SE,142,4.0,10.0,95,0.00,,---,0.31,VWS V14.00,2013-01-30 13:11:00,
2013-01-30 08:16:00,50.3,48.9,29.25,SE,140,6.0,10.0,95,0.00,,---,0.31,VWS V14.00,2013-01-30 13:16:00,
2013-01-30 08:21:00,50.2,48.8,29.24,SSE,164,2.0,10.0,95,0.00,,---,0.31,VWS V14.00,2013-01-30 13:21:00,
2013-01-30 08:27:00,50.2,48.8,29.25,SSE,150,2.0,10.0,95,0.00,,---,0.31,VWS V14.00,2013-01-30 13:27:00,
2013-01-30 08:32:00,50.1,48.7,29.25,SSE,149,2.0,7.0,95,0.00,,---,0.31,VWS V14.00,2013-01-30 13:32:00,
2013-01-30 08:37:00,50.1,48.7,29.25,SE,136,0.0,11.0,95,0.00,,---,0.31,VWS V14.00,2013-01-30 13:37:00,
2013-01-30 08:42:00,50.1,48.7,29.24,SE,144,0.0,12.0,95,0.00,,---,0.31,VWS V14.00,2013-01-30 13:42:00,
2013-01-30 08:47:00,50.0,48.6,29.27,SE,137,0.0,12.0,95,0.00,,---,0.31,VWS V14.00,2013-01-30 13:47:00,
2013-01-30 08:52:00,50.0,48.6,29.28,SE,137,0.0,12.0,95,0.00,,---,0.31,VWS V14.00,2013-01-30 13:52:00,
2013-01-30 08:57:00,50.0,48.6,29.29,SE,146,0.0,12.0,95,0.00,,---,0.31,VWS V14.00,2013-01-30 13:57:00,
2013-01-30 09:02:00,50.0,48.6,29.28,SSE,148,1.0,4.0,95,0.00,,---,0.31,VWS V14.00,2013-01-30 14:02:00,
2013-01-30 09:07:00,50.0,48.6,29.29,SE,132,0.0,4.0,95,0.00,,---,0.31,VWS V14.00,2013-01-30 14:07:00,
2013-01-30 09:12:00,49.9,48.5,29.28,SE,137,1.0,4.0,95,0.00,,---,0.31,VWS V14.00,2013-01-30 14:12:00,
2013-01-30 09:18:00,49.9,48.5,29.30,SSE,167,0.0,4.0,95,0.00,,---,0.31,VWS V14.00,2013-01-30 14:18:00,
2013-01-30 09:23:00,49.8,48.4,29.32,SSE,167,0.0,4.0,95,0.00,,---,0.31,VWS V14.00,2013-01-30 14:23:00,
2013-01-30 09:28:00,49.8,48.4,29.29,SSE,155,0.0,6.0,95,0.00,,---,0.31,VWS V14.00,2013-01-30 14:28:00,
2013-01-30 09:33:00,49.8,48.4,29.32,SSE,164,0.0,2.0,95,0.00,,---,0.31,VWS V14.00,2013-01-30 14:33:00,
2013-01-30 09:38:00,49.8,48.4,29.30,SSE,162,0.0,6.0,95,0.00,,---,0.31,VWS V14.00,2013-01-30 14:38:00,
2013-01-30 09:43:00,49.9,48.5,29.31,SSW,212,0.0,6.0,95,0.00,,---,0.31,VWS V14.00,2013-01-30 14:43:00,
2013-01-30 09:48:00,50.0,48.6,29.31,SW,234,4.0,6.0,95,0.00,,---,0.31,VWS V14.00,2013-01-30 14:48:00,
2013-01-30 09:53:00,50.0,48.6,29.32,WSW,249,5.0,9.0,95,0.00,,---,0.31,VWS V14.00,2013-01-30 14:53:00,
2013-01-30 09:58:00,50.1,48.7,29.32,WSW,250,0.0,10.0,95,0.00,,---,0.31,VWS V14.00,2013-01-30 14:58:00,
2013-01-30 10:03:00,50.0,48.6,29.32,WSW,249,0.0,4.0,95,0.00,,---,0.31,VWS V14.00,2013-01-30 15:03:00,
2013-01-30 10:08:00,50.0,48.6,29.31,WSW,246,6.0,6.0,95,0.00,,---,0.31,VWS V14.00,2013-01-30 15:08:00,
2013-01-30 10:13:00,50.0,48.6,29.32,WSW,242,5.0,8.0,95,0.00,,---,0.31,VWS V14.00,2013-01-30 15:13:00,
2013-01-30 10:19:00,49.9,48.5,29.32,SW,235,0.0,8.0,95,0.00,,---,0.31,VWS V14.00,2013-01-30 15:19:00,
2013-01-30 10:24:00,49.9,48.5,29.30,WSW,249,3.0,8.0,95,0.00,,---,0.31,VWS V14.00,2013-01-30 15:24:00,
2013-01-30 10:29:00,49.9,48.2,29.31,SW,233,1.0,8.0,94,0.00,,---,0.31,VWS V14.00,2013-01-30 15:29:00,
2013-01-30 10:34:00,49.9,48.5,29.31,WSW,257,0.0,8.0,95,0.00,,---,0.31,VWS V14.00,2013-01-30 15:34:00,
2013-01-30 10:39:00,49.9,48.5,29.30,WSW,243,4.0,8.0,95,0.00,,---,0.31,VWS V14.00,2013-01-30 15:39:00,
2013-01-30 10:44:00,49.9,48.2,29.30,SSW,209,0.0,8.0,94,0.00,,---,0.31,VWS V14.00,2013-01-30 15:44:00,
2013-01-30 10:49:00,50.0,48.3,29.31,SSW,212,1.0,8.0,94,0.00,,---,0.31,VWS V14.00,2013-01-30 15:49:00,
2013-01-30 10:54:00,50.0,48.3,29.29,WSW,242,0.0,8.0,94,0.00,,---,0.31,VWS V14.00,2013-01-30 15:54:00,
2013-01-30 10:59:00,50.0,48.3,29.29,WSW,238,1.0,8.0,94,0.00,,---,0.31,VWS V14.00,2013-01-30 15:59:00,
2013-01-30 11:04:00,50.0,48.3,29.29,SW,215,1.0,6.0,94,0.00,,---,0.31,VWS V14.00,2013-01-30 16:04:00,
2013-01-30 11:09:00,50.0,48.3,29.28,WSW,239,0.0,12.0,94,0.00,,---,0.31,VWS V14.00,2013-01-30 16:09:00,
2013-01-30 11:14:00,50.0,48.3,29.28,SW,232,1.0,12.0,94,0.00,,---,0.31,VWS V14.00,2013-01-30 16:14:00,
2013-01-30 11:20:00,50.0,48.3,29.27,SW,225,1.0,12.0,94,0.00,,---,0.31,VWS V14.00,2013-01-30 16:20:00,
2013-01-30 11:25:00,50.0,48.3,29.28,WSW,247,1.0,12.0,94,0.00,,---,0.31,VWS V14.00,2013-01-30 16:25:00,
2013-01-30 11:30:00,50.1,48.4,29.29,SW,232,4.0,12.0,94,0.00,,---,0.31,VWS V14.00,2013-01-30 16:30:00,
2013-01-30 11:35:00,50.1,48.4,29.30,SW,227,2.0,10.0,94,0.00,,---,0.31,VWS V14.00,2013-01-30 16:35:00,
2013-01-30 11:40:00,50.2,48.5,29.29,WSW,248,4.0,10.0,94,0.00,,---,0.31,VWS V14.00,2013-01-30 16:40:00,
2013-01-30 11:45:00,50.2,48.5,29.28,SSW,201,2.0,11.0,94,0.00,,---,0.31,VWS V14.00,2013-01-30 16:45:00,
2013-01-30 11:50:00,50.1,48.4,29.28,West,269,2.0,11.0,94,0.00,,---,0.31,VWS V14.00,2013-01-30 16:50:00,
2013-01-30 11:55:00,50.2,48.5,29.27,WSW,238,1.0,11.0,94,0.00,,---,0.31,VWS V14.00,2013-01-30 16:55:00,
2013-01-30 12:00:00,50.2,48.5,29.27,WSW,257,6.0,8.0,94,0.00,,---,0.31,VWS V14.00,2013-01-30 17:00:00,
2013-01-30 12:05:00,50.2,48.3,29.26,WSW,240,0.0,11.0,93,0.00,,---,0.31,VWS V14.00,2013-01-30 17:05:00,
2013-01-30 12:10:00,50.3,48.4,29.25,West,266,12.0,12.0,93,0.00,,---,0.31,VWS V14.00,2013-01-30 17:10:00,
2013-01-30 12:15:00,50.3,48.4,29.25,SW,228,0.0,12.0,93,0.00,,---,0.31,VWS V14.00,2013-01-30 17:15:00,
2013-01-30 12:20:00,50.4,48.5,29.25,SW,230,0.0,12.0,93,0.00,,---,0.31,VWS V14.00,2013-01-30 17:20:00,
2013-01-30 12:25:00,50.5,48.6,29.25,SW,235,0.0,12.0,93,0.00,,---,0.31,VWS V14.00,2013-01-30 17:25:00,
2013-01-30 12:31:00,50.6,48.7,29.24,SW,218,0.0,3.0,93,0.00,,---,0.31,VWS V14.00,2013-01-30 17:31:00,
2013-01-30 12:36:00,50.8,48.8,29.24,SSW,198,2.0,6.0,93,0.00,,---,0.31,VWS V14.00,2013-01-30 17:36:00,
2013-01-30 12:41:00,50.8,48.8,29.23,SSW,200,3.0,10.0,93,0.00,,---,0.31,VWS V14.00,2013-01-30 17:41:00,
2013-01-30 12:46:00,50.9,49.0,29.23,WSW,238,3.0,12.0,93,0.00,,---,0.31,VWS V14.00,2013-01-30 17:46:00,
2013-01-30 12:51:00,51.0,49.0,29.23,SW,218,1.0,12.0,93,0.00,,---,0.31,VWS V14.00,2013-01-30 17:51:00,
2013-01-30 12:56:00,51.1,49.2,29.23,SW,219,2.0,12.0,93,0.00,,---,0.31,VWS V14.00,2013-01-30 17:56:00,
2013-01-30 13:01:00,51.3,49.3,29.23,SSW,198,2.0,3.0,93,0.00,,---,0.31,VWS V14.00,2013-01-30 18:01:00,
2013-01-30 13:06:00,51.3,49.3,29.24,WSW,245,6.0,7.0,93,0.00,,---,0.31,VWS V14.00,2013-01-30 18:06:00,
2013-01-30 13:11:00,51.3,49.3,29.25,SSW,207,4.0,7.0,93,0.00,,---,0.31,VWS V14.00,2013-01-30 18:11:00,
2013-01-30 13:16:00,51.3,49.1,29.25,SSW,194,7.0,11.0,92,0.00,,---,0.31,VWS V14.00,2013-01-30 18:16:00,
2013-01-30 13:21:00,51.3,49.1,29.25,SW,225,7.0,20.0,92,0.00,,---,0.31,VWS V14.00,2013-01-30 18:21:00,
2013-01-30 13:26:00,51.3,49.1,29.23,SW,230,3.0,20.0,92,0.00,,---,0.31,VWS V14.00,2013-01-30 18:26:00,
2013-01-30 13:31:00,51.2,49.0,29.23,SSW,192,5.0,5.0,92,0.00,,---,0.31,VWS V14.00,2013-01-30 18:31:00,
2013-01-30 13:37:00,51.2,49.2,29.23,SSW,211,1.0,14.0,93,0.00,,---,0.31,VWS V14.00,2013-01-30 18:37:00,
2013-01-30 13:42:00,51.3,49.1,29.23,WSW,238,4.0,21.0,92,0.00,,---,0.31,VWS V14.00,2013-01-30 18:42:00,
2013-01-30 13:47:00,51.3,49.1,29.24,WSW,250,6.0,21.0,92,0.00,,---,0.31,VWS V14.00,2013-01-30 18:47:00,
2013-01-30 13:52:00,51.3,49.1,29.23,WSW,241,8.0,21.0,92,0.00,,---,0.31,VWS V14.00,2013-01-30 18:52:00,
2013-01-30 13:57:00,51.4,49.2,29.21,WSW,251,3.0,21.0,92,0.00,,---,0.31,VWS V14.00,2013-01-30 18:57:00,
2013-01-30 14:02:00,51.4,48.9,29.21,SW,227,2.0,9.0,91,0.00,,---,0.31,VWS V14.00,2013-01-30 19:02:00,
2013-01-30 14:07:00,51.5,49.0,29.21,West,271,5.0,14.0,91,0.00,,---,0.31,VWS V14.00,2013-01-30 19:07:00,
2013-01-30 14:12:00,51.6,48.8,29.21,South,181,2.0,16.0,90,0.00,,---,0.31,VWS V14.00,2013-01-30 19:12:00,
2013-01-30 14:17:00,51.6,48.8,29.20,WSW,239,4.0,16.0,90,0.00,,---,0.31,VWS V14.00,2013-01-30 19:17:00,
2013-01-30 14:22:00,51.7,48.9,29.21,SSW,192,3.0,16.0,90,0.00,,---,0.31,VWS V14.00,2013-01-30 19:22:00,
2013-01-30 14:27:00,51.8,49.0,29.21,WSW,256,4.0,21.0,90,0.00,,---,0.31,VWS V14.00,2013-01-30 19:27:00,
2013-01-30 14:32:00,51.9,49.1,29.21,South,176,1.0,5.0,90,0.00,,---,0.31,VWS V14.00,2013-01-30 19:32:00,
2013-01-30 14:37:00,52.0,48.9,29.21,SW,219,4.0,12.0,89,0.00,,---,0.31,VWS V14.00,2013-01-30 19:37:00,
2013-01-30 14:42:00,52.2,49.1,29.21,WSW,243,2.0,13.0,89,0.00,,---,0.31,VWS V14.00,2013-01-30 19:42:00,
2013-01-30 14:47:00,52.4,49.3,29.20,SSW,209,0.0,13.0,89,0.00,,---,0.31,VWS V14.00,2013-01-30 19:47:00,
2013-01-30 14:52:00,52.6,49.2,29.19,SW,234,4.0,13.0,88,0.00,,---,0.31,VWS V14.00,2013-01-30 19:52:00,
2013-01-30 14:57:00,52.7,49.0,29.18,SW,234,8.0,13.0,87,0.00,,---,0.31,VWS V14.00,2013-01-30 19:57:00,
2013-01-30 15:02:00,52.7,49.0,29.18,SW,230,7.0,11.0,87,0.00,,---,0.31,VWS V14.00,2013-01-30 20:02:00,
2013-01-30 15:07:00,52.7,49.0,29.18,SSW,208,11.0,14.0,87,0.00,,---,0.31,VWS V14.00,2013-01-30 20:07:00,
2013-01-30 15:13:00,52.7,49.0,29.17,WSW,240,4.0,14.0,87,0.00,,---,0.31,VWS V14.00,2013-01-30 20:13:00,
2013-01-30 15:18:00,52.7,49.0,29.17,WSW,247,1.0,14.0,87,0.00,,---,0.31,VWS V14.00,2013-01-30 20:18:00,
2013-01-30 15:23:00,52.7,48.6,29.18,West,276,0.0,24.0,86,0.00,,---,0.31,VWS V14.00,2013-01-30 20:23:00,
2013-01-30 15:28:00,52.7,48.6,29.18,WSW,246,4.0,24.0,86,0.00,,---,0.31,VWS V14.00,2013-01-30 20:28:00,
2013-01-30 15:33:00,52.6,48.5,29.18,SW,228,5.0,9.0,86,0.00,,---,0.31,VWS V14.00,2013-01-30 20:33:00,
2013-01-30 15:38:00,52.5,48.4,29.17,SSW,207,1.0,9.0,86,0.00,,---,0.31,VWS V14.00,2013-01-30 20:38:00,
2013-01-30 15:43:00,52.4,48.3,29.18,South,183,4.0,11.0,86,0.00,,---,0.31,VWS V14.00,2013-01-30 20:43:00,
2013-01-30 15:48:00,52.4,48.3,29.17,SW,224,0.0,11.0,86,0.00,,---,0.31,VWS V14.00,2013-01-30 20:48:00,
2013-01-30 15:53:00,52.3,48.2,29.17,SSW,205,2.0,12.0,86,0.00,,---,0.31,VWS V14.00,2013-01-30 20:53:00,
2013-01-30 15:58:00,52.2,48.2,29.17,SW,226,5.0,12.0,86,0.00,,---,0.31,VWS V14.00,2013-01-30 20:58:00,
2013-01-30 16:03:00,52.1,48.4,29.17,SSW,197,9.0,11.0,87,0.00,,---,0.31,VWS V14.00,2013-01-30 21:03:00,
2013-01-30 16:08:00,51.9,48.2,29.17,SSW,213,3.0,11.0,87,0.00,,---,0.31,VWS V14.00,2013-01-30 21:08:00,
2013-01-30 16:13:00,51.7,48.0,29.17,West,262,6.0,13.0,87,0.01,,---,0.32,VWS V14.00,2013-01-30 21:13:00,
2013-01-30 16:18:00,50.8,45.5,29.19,West,265,6.0,18.0,82,0.01,,---,0.32,VWS V14.00,2013-01-30 21:18:00,
2013-01-30 16:23:00,48.4,43.5,29.19,WSW,243,17.0,23.0,83,0.01,,---,0.32,VWS V14.00,2013-01-30 21:23:00,
2013-01-30 16:28:00,47.3,42.7,29.19,WSW,252,8.0,23.0,84,0.01,,---,0.32,VWS V14.00,2013-01-30 21:28:00,
2013-01-30 16:33:00,46.9,42.6,29.19,West,263,10.0,18.0,85,0.01,,---,0.32,VWS V14.00,2013-01-30 21:33:00,
2013-01-30 16:39:00,46.7,42.1,29.20,West,259,8.0,23.0,84,0.01,,---,0.32,VWS V14.00,2013-01-30 21:39:00,
2013-01-30 16:44:00,46.4,41.8,29.19,SW,223,10.0,23.0,84,0.01,,---,0.32,VWS V14.00,2013-01-30 21:44:00,
2013-01-30 16:49:00,46.0,41.4,29.19,WSW,243,7.0,23.0,84,0.01,,---,0.32,VWS V14.00,2013-01-30 21:49:00,
2013-01-30 16:54:00,45.8,41.2,29.19,West,276,15.0,23.0,84,0.01,,---,0.32,VWS V14.00,2013-01-30 21:54:00,
2013-01-30 16:59:00,45.4,40.9,29.18,WSW,248,17.0,23.0,84,0.01,,---,0.32,VWS V14.00,2013-01-30 21:59:00,
2013-01-30 17:04:00,45.0,40.8,29.19,West,261,11.0,20.0,85,0.01,,---,0.32,VWS V14.00,2013-01-30 22:04:00,
2013-01-30 17:09:00,44.6,40.7,29.19,West,261,5.0,20.0,86,0.01,,---,0.32,VWS V14.00,2013-01-30 22:09:00,
2013-01-30 17:14:00,44.1,40.2,29.18,SW,229,10.0,20.0,86,0.01,,---,0.32,VWS V14.00,2013-01-30 22:14:00,
2013-01-30 17:19:00,43.6,40.0,29.20,SSW,211,5.0,20.0,87,0.01,,---,0.32,VWS V14.00,2013-01-30 22:19:00,
2013-01-30 17:24:00,43.2,39.6,29.20,SW,222,8.0,20.0,87,0.01,,---,0.32,VWS V14.00,2013-01-30 22:24:00,
2013-01-30 17:29:00,42.7,39.1,29.21,SW,226,5.0,20.0,87,0.01,,---,0.32,VWS V14.00,2013-01-30 22:29:00,
2013-01-30 17:34:00,42.3,39.0,29.20,West,265,5.0,17.0,88,0.00,,---,0.32,VWS V14.00,2013-01-30 22:34:00,
2013-01-30 17:39:00,41.8,38.5,29.20,West,259,14.0,20.0,88,0.00,,---,0.32,VWS V14.00,2013-01-30 22:39:00,
2013-01-30 17:44:00,41.3,38.0,29.20,WSW,251,14.0,20.0,88,0.00,,---,0.32,VWS V14.00,2013-01-30 22:44:00,
2013-01-30 17:49:00,40.8,37.5,29.20,WSW,256,11.0,21.0,88,0.00,,---,0.32,VWS V14.00,2013-01-30 22:49:00,
2013-01-30 17:54:00,40.4,37.1,29.21,WSW,253,7.0,21.0,88,0.00,,---,0.32,VWS V14.00,2013-01-30 22:54:00,
2013-01-30 17:59:00,40.2,36.9,29.20,WSW,246,10.0,23.0,88,0.00,,---,0.32,VWS V14.00,2013-01-30 22:59:00,
2013-01-30 18:04:00,40.0,36.7,29.22,West,263,10.0,27.0,88,0.00,,---,0.32,VWS V14.00,2013-01-30 23:04:00,
2013-01-30 18:09:00,39.8,36.5,29.22,WSW,257,8.0,27.0,88,0.00,,---,0.32,VWS V14.00,2013-01-30 23:09:00,
2013-01-30 18:14:00,39.5,36.5,29.22,West,259,13.0,27.0,89,0.00,,---,0.32,VWS V14.00,2013-01-30 23:14:00,
2013-01-30 18:19:00,38.9,35.7,29.22,WSW,237,17.0,27.0,88,0.01,,---,0.33,VWS V14.00,2013-01-30 23:19:00,
2013-01-30 18:25:00,38.4,35.2,29.22,West,275,13.0,27.0,88,0.01,,---,0.33,VWS V14.00,2013-01-30 23:25:00,
2013-01-30 18:30:00,38.0,35.0,29.22,WSW,254,4.0,27.0,89,0.01,,---,0.33,VWS V14.00,2013-01-30 23:30:00,
2013-01-30 18:35:00,37.8,34.9,29.21,West,262,7.0,12.0,89,0.01,,---,0.33,VWS V14.00,2013-01-30 23:35:00,
2013-01-30 18:40:00,37.6,34.9,29.22,SW,225,13.0,15.0,90,0.01,,---,0.33,VWS V14.00,2013-01-30 23:40:00,
2013-01-30 18:45:00,37.4,34.7,29.23,WSW,248,7.0,15.0,90,0.01,,---,0.33,VWS V14.00,2013-01-30 23:45:00,
2013-01-30 18:50:00,37.4,34.7,29.23,WSW,240,10.0,21.0,90,0.01,,---,0.33,VWS V14.00,2013-01-30 23:50:00,
2013-01-30 18:55:00,37.4,34.7,29.24,SW,217,10.0,21.0,90,0.01,,---,0.33,VWS V14.00,2013-01-30 23:55:00,
2013-01-30 19:00:00,37.3,34.6,29.23,WSW,250,3.0,4.0,90,0.01,,---,0.33,VWS V14.00,2013-01-31 00:00:00,
2013-01-30 19:05:00,37.2,34.5,29.23,SW,219,11.0,17.0,90,0.01,,---,0.33,VWS V14.00,2013-01-31 00:05:00,
2013-01-30 19:10:00,37.1,34.4,29.24,West,265,11.0,22.0,90,0.01,,---,0.33,VWS V14.00,2013-01-31 00:10:00,
2013-01-30 19:15:00,37.2,34.3,29.23,West,259,8.0,22.0,89,0.01,,---,0.33,VWS V14.00,2013-01-31 00:15:00,
2013-01-30 19:20:00,37.1,34.2,29.25,West,274,8.0,23.0,89,0.01,,---,0.33,VWS V14.00,2013-01-31 00:20:00,
2013-01-30 19:25:00,37.1,34.2,29.25,SW,217,11.0,23.0,89,0.01,,---,0.33,VWS V14.00,2013-01-31 00:25:00,
2013-01-30 19:30:00,37.0,34.1,29.25,SSW,204,2.0,6.0,89,0.00,,---,0.33,VWS V14.00,2013-01-31 00:30:00,
2013-01-30 19:35:00,37.0,33.8,29.25,West,266,14.0,21.0,88,0.00,,---,0.33,VWS V14.00,2013-01-31 00:35:00,
2013-01-30 19:40:00,37.0,33.8,29.25,WSW,243,5.0,21.0,88,0.00,,---,0.33,VWS V14.00,2013-01-31 00:40:00,
2013-01-30 19:45:00,36.9,33.4,29.25,WSW,254,6.0,21.0,87,0.00,,---,0.33,VWS V14.00,2013-01-31 00:45:00,
2013-01-30 19:50:00,36.9,33.4,29.25,WSW,242,5.0,21.0,87,0.00,,---,0.33,VWS V14.00,2013-01-31 00:50:00,
2013-01-30 19:55:00,37.0,33.5,29.25,WSW,257,8.0,23.0,87,0.00,,---,0.33,VWS V14.00,2013-01-31 00:55:00,
2013-01-30 20:00:00,36.9,33.7,29.25,WSW,242,7.0,11.0,88,0.00,,---,0.33,VWS V14.00,2013-01-31 01:00:00,
2013-01-30 20:05:00,36.8,33.6,29.24,WSW,254,6.0,21.0,88,0.00,,---,0.33,VWS V14.00,2013-01-31 01:05:00,
2013-01-30 20:10:00,36.8,33.6,29.25,WSW,247,11.0,21.0,88,0.00,,---,0.33,VWS V14.00,2013-01-31 01:10:00,
2013-01-30 20:16:00,36.6,33.4,29.24,WSW,247,7.0,21.0,88,0.00,,---,0.33,VWS V14.00,2013-01-31 01:16:00,
2013-01-30 20:21:00,36.2,33.0,29.24,WSW,256,11.0,23.0,88,0.00,,---,0.33,VWS V14.00,2013-01-31 01:21:00,
2013-01-30 20:26:00,35.7,32.8,29.25,West,269,5.0,23.0,89,0.00,,---,0.33,VWS V14.00,2013-01-31 01:26:00,
2013-01-30 20:31:00,35.3,32.7,29.26,West,260,13.0,18.0,90,0.00,,---,0.33,VWS V14.00,2013-01-31 01:31:00,
2013-01-30 20:36:00,34.9,32.3,29.26,West,265,7.0,19.0,90,0.00,,---,0.33,VWS V14.00,2013-01-31 01:36:00,
2013-01-30 20:41:00,34.6,32.0,29.28,WSW,244,18.0,19.0,90,0.00,,---,0.33,VWS V14.00,2013-01-31 01:41:00,
2013-01-30 20:46:00,34.3,31.4,29.28,West,275,15.0,22.0,89,0.00,,---,0.33,VWS V14.00,2013-01-31 01:46:00,
2013-01-30 20:51:00,34.2,31.3,29.28,WSW,250,6.0,22.0,89,0.00,,---,0.33,VWS V14.00,2013-01-31 01:51:00,
2013-01-30 20:56:00,34.0,31.1,29.28,West,274,7.0,22.0,89,0.00,,---,0.33,VWS V14.00,2013-01-31 01:56:00,
2013-01-30 21:01:00,33.8,30.9,29.28,WNW,291,6.0,11.0,89,0.00,,---,0.33,VWS V14.00,2013-01-31 02:01:00,
2013-01-30 21:06:00,33.6,30.7,29.28,WNW,287,7.0,20.0,89,0.00,,---,0.33,VWS V14.00,2013-01-31 02:06:00,
2013-01-30 21:11:00,33.2,30.3,29.28,West,281,9.0,20.0,89,0.00,,---,0.33,VWS V14.00,2013-01-31 02:11:00,
2013-01-30 21:16:00,33.0,30.1,29.29,West,263,10.0,20.0,89,0.00,,---,0.33,VWS V14.00,2013-01-31 02:16:00,
2013-01-30 21:21:00,32.8,30.2,29.29,West,281,7.0,20.0,90,0.00,,---,0.33,VWS V14.00,2013-01-31 02:21:00,
2013-01-30 21:26:00,32.5,29.9,29.30,WNW,283,7.0,21.0,90,0.00,,---,0.33,VWS V14.00,2013-01-31 02:26:00,
2013-01-30 21:31:00,32.4,29.8,29.30,WNW,286,5.0,12.0,90,0.00,,---,0.33,VWS V14.00,2013-01-31 02:31:00,
2013-01-30 21:36:00,32.2,29.6,29.31,WNW,283,7.0,15.0,90,0.00,,---,0.33,VWS V14.00,2013-01-31 02:36:00,
2013-01-30 21:41:00,32.2,29.3,29.31,West,280,6.0,16.0,89,0.00,,---,0.33,VWS V14.00,2013-01-31 02:41:00,
2013-01-30 21:46:00,32.1,29.5,29.31,West,274,7.0,16.0,90,0.00,,---,0.33,VWS V14.00,2013-01-31 02:46:00,
2013-01-30 21:52:00,31.9,29.0,29.31,West,273,9.0,16.0,89,0.00,,---,0.33,VWS V14.00,2013-01-31 02:52:00,
2013-01-30 21:57:00,31.9,28.8,29.32,West,273,7.0,16.0,88,0.00,,---,0.33,VWS V14.00,2013-01-31 02:57:00,
2013-01-30 22:02:00,31.7,28.8,29.33,West,274,18.0,18.0,89,0.00,,---,0.33,VWS V14.00,2013-01-31 03:02:00,
2013-01-30 22:07:00,31.6,28.5,29.33,West,273,8.0,18.0,88,0.00,,---,0.33,VWS V14.00,2013-01-31 03:07:00,
2013-01-30 22:12:00,31.6,28.2,29.33,West,274,12.0,18.0,87,0.00,,---,0.33,VWS V14.00,2013-01-31 03:12:00,
2013-01-30 22:17:00,31.5,28.4,29.34,West,273,5.0,18.0,88,0.00,,---,0.33,VWS V14.00,2013-01-31 03:17:00,
2013-01-30 22:22:00,31.2,28.3,29.34,West,273,7.0,23.0,89,0.00,,---,0.33,VWS V14.00,2013-01-31 03:22:00,
2013-01-30 22:27:00,31.0,28.1,29.34,West,274,9.0,23.0,89,0.00,,---,0.33,VWS V14.00,2013-01-31 03:27:00,
2013-01-30 22:32:00,30.9,28.0,29.35,West,274,8.0,11.0,89,0.00,,---,0.33,VWS V14.00,2013-01-31 03:32:00,
2013-01-30 22:37:00,30.8,27.4,29.35,West,273,14.0,15.0,87,0.00,,---,0.33,VWS V14.00,2013-01-31 03:37:00,
2013-01-30 22:42:00,30.8,27.1,29.36,West,274,9.0,20.0,86,0.00,,---,0.33,VWS V14.00,2013-01-31 03:42:00,
2013-01-30 22:47:00,30.7,27.0,29.36,West,273,6.0,21.0,86,0.00,,---,0.33,VWS V14.00,2013-01-31 03:47:00,
2013-01-30 22:52:00,30.7,26.7,29.36,West,274,12.0,21.0,85,0.00,,---,0.33,VWS V14.00,2013-01-31 03:52:00,
2013-01-30 22:57:00,30.6,26.9,29.36,West,274,6.0,21.0,86,0.00,,---,0.33,VWS V14.00,2013-01-31 03:57:00,
2013-01-30 23:02:00,30.6,26.4,29.37,West,273,8.0,15.0,84,0.00,,---,0.33,VWS V14.00,2013-01-31 04:02:00,
2013-01-30 23:07:00,30.5,26.2,29.38,West,274,18.0,18.0,84,0.00,,---,0.33,VWS V14.00,2013-01-31 04:07:00,
2013-01-30 23:12:00,30.4,26.1,29.38,West,273,5.0,18.0,84,0.00,,---,0.33,VWS V14.00,2013-01-31 04:12:00,
2013-01-30 23:18:00,30.4,26.1,29.38,West,273,8.0,24.0,84,0.00,,---,0.33,VWS V14.00,2013-01-31 04:18:00,
2013-01-30 23:23:00,30.2,25.7,29.39,West,273,9.0,24.0,83,0.00,,---,0.33,VWS V14.00,2013-01-31 04:23:00,
2013-01-30 23:28:00,30.1,25.6,29.40,West,274,6.0,24.0,83,0.00,,---,0.33,VWS V14.00,2013-01-31 04:28:00,
2013-01-30 23:33:00,30.0,25.5,29.40,West,273,6.0,20.0,83,0.00,,---,0.33,VWS V14.00,2013-01-31 04:33:00,
2013-01-30 23:38:00,30.0,25.5,29.40,West,273,6.0,20.0,83,0.00,,---,0.33,VWS V14.00,2013-01-31 04:38:00,
2013-01-30 23:43:00,30.0,25.5,29.40,West,273,8.0,20.0,83,0.00,,---,0.33,VWS V14.00,2013-01-31 04:43:00,
2013-01-30 23:48:00,30.0,25.5,29.41,West,273,6.0,20.0,83,0.00,,---,0.33,VWS V14.00,2013-01-31 04:48:00,
2013-01-30 23:53:00,29.8,25.6,29.41,West,273,8.0,22.0,84,0.00,,---,0.33,VWS V14.00,2013-01-31 04:53:00,
2013-01-30 23:58:00,29.6,25.9,29.42,West,273,5.0,22.0,86,0.00,,---,0.33,VWS V14.00,2013-01-31 04:58:00,